Location: Chuathbaluk
(61.5726°N, 159.2454°W)
Time: 14:01:54
(UTC+00:00)

Altair - Pass Details

Date: 04 December 2020
Orbit: 1501 x 1682 km, 47.2° (Epoch: 17 January)

Event Time Altitude Azimuth Distance (km) Brightness Sun altitude
Rises 06:25:10 0° 219° (SW) 4,728 10.3 -33.4°
Reaches altitude 10° 06:28:51 10° 208° (SSW) 3,720 9.6 -33.8°
Enters shadow 06:33:00 22° 185° (S) 2,857 8.7 -34.3°
